Regional Weather Roundup
Issued by NWS

Home | Current Version | Previous Version | Text Only | Print | Product List | Glossary On
Versions: 1 2 3 4 5 6 7 8 9 10 11 12 13 14 15 16 17 18 19 20 21 22 23 24 25 26 27 28 29 30 31 32 33 34 35 36 37 38 39 40 41 42 43 44 45 46 47 48 49 50
949
ASUS43 KDTX 251001
RWRMI
MICHIGAN HOURLY REGIONAL WEATHER ROUNDUP
NATIONAL WEATHER SERVICE DETROIT/PONTIAC MI
600 AM EDT SUN SEP 25 2016

NOTE: "FAIR" INDICATES FEW OR NO CLOUDS BELOW 12,000 FEET WITH NO
SIGNIFICANT WEATHER AND/OR OBSTRUCTION TO VISIBILITY.

MIZ047>049-052>055-059>063-066>070-074>076-081>083-251100-
SOUTHEAST LOWER MICHIGAN

CITY           SKY/WX    TMP DP  RH WIND       PRES   REMARKS
ADRIAN         CLEAR     50  49  96 NE3       30.21S
ALMA           CLEAR     45  45 100 CALM      30.20F
ANN ARBOR      CLEAR     48  46  93 CALM      30.19S
BAD AXE        CLEAR     40  39  97 CALM      30.23S
CARO           FOG       42  42  98 CALM      30.21S VSB 1
DETROIT CITY   CLEAR     52  49  89 N3        30.20S
DETROIT        CLEAR     52  47  83 N3        30.21R
FLINT          CLEAR     45  44  97 CALM      30.21F
GROSSE ILE     CLEAR     57  47  70 E5        30.19R
HILLSDALE        N/A     52  46  82 SE6       30.18S HAZE
HOWELL         CLEAR     48  47  95 CALM      30.20S

CITY           SKY/WX    TMP DP  RH WIND       PRES   REMARKS
JACKSON        CLEAR     51  48  89 E3        30.19S
LAMBERTVILLE   CLEAR     50  49  94 CALM      30.20S
LANSING        CLEAR     50  45  83 E3        30.20F
LAPEER         FAIR      41  40  99 CALM      30.22S
MASON          CLEAR     50  47  88 S6        30.19F
MONROE         PTCLDY    52  50  93 N3        30.19S
MT. CLEMENS    CLEAR     48  45  90 E7        30.19R
PONTIAC        CLEAR     48  44  86 E3        30.20S
PORT HOPE        N/A     51  47  86 S3        30.21S
PORT HURON     CLEAR     41  41 100 CALM      30.22S
TRI CITIES     CLEAR     49  46  90 SE3       30.22S
MIDLAND        FAIR      42  42 100 CALM      30.21R
TROY           CLEAR     52  46  79 N3        30.22S
SAGINAW HB     CLEAR     45  43  93 CALM      30.21S
$$
MIZ043>046-050>051-056>058-064>065-071>073-077>080-251100-
SOUTHWEST LOWER MICHIGAN

CITY           SKY/WX    TMP DP  RH WIND       PRES   REMARKS
BATTLE CREEK   CLEAR     55  52  89 SE5       30.18F
BENTON HARBOR  CLOUDY    61  54  77 SE9       30.14S
BIG RAPIDS     CLEAR     49  47  92 CALM      30.19S
COLDWATER      CLEAR     54  52  92 SE6       30.18S
FREMONT        FAIR      51  46  83 E5        30.17F
HOLLAND        CLOUDY    54  52  93 E6        30.16S
GRAND RAPIDS   CLEAR     52  47  83 E3        30.18S
IONIA          FAIR      48  46  93 CALM      30.19S
KALAMAZOO      CLEAR     56  52  86 VRB3      30.18S
LUDINGTON      CLOUDY    54  47  78 E6        30.15S
MARSHALL       CLEAR     51  50  97 CALM      30.18S
MUSKEGON       PTCLDY    54  50  86 E7        30.16S
SOUTH HAVEN    CLOUDY    60  56  87 SE6       30.15S
$$
MIZ016>042-251100-
NORTHERN LOWER MICHIGAN

CITY           SKY/WX    TMP DP  RH WIND       PRES   REMARKS
ALPENA         CLEAR     39  36  89 CALM      30.22F
BEAVER ISLAND  CLEAR     54  49  81 SE5       30.18S
BELLAIRE       CLEAR     46  44  95 CALM      30.20S
CADILLAC       CLEAR     47  43  85 CALM      30.19S
CHARLEVOIX     CLEAR     50  45  81 SE5       30.22R
FRANKFORT      PTCLDY    56  44  64 SE8       30.16F
GAYLORD        CLOUDY    47  42  83 S5        30.21S
GRAYLING       CLOUDY    36  35  96 CALM      30.22R
HARBOR SPRINGS CLEAR     46  43  89 NE5       30.20S
HOUGHTON LAKE  CLEAR     40  39  97 CALM      30.21F
OSCODA         PTCLDY    40  38  93 CALM      30.22R
PELLSTON       CLEAR     39  37  92 CALM      30.21S
ROGERS CITY    PTCLDY    49  43  80 SW3       30.23S
TRAVERSE CITY  MOCLDY    54  46  74 VRB3      30.17S
$$
MIZ007>008-015-251100-
EASTERN UPPER MICHIGAN

CITY           SKY/WX    TMP DP  RH WIND       PRES   REMARKS
KINROSS        CLOUDY    50  46  86 S7        30.21S
MACKINAC ISLAN CLEAR     55  46  73 S9        30.20S
NEWBERRY       CLEAR     46  46  97 SE3       30.18S
S. S. MARIE    CLOUDY    54  50  86 E3        30.21R
MUNISING         N/A     53  51  93 SW7       30.12F
$$
MIZ004>006-011>014-085-251100-
CENTRAL UPPER MICHIGAN

CITY           SKY/WX    TMP DP  RH WIND       PRES   REMARKS
MANISTIQUE     CLEAR     60  55  83 S12       30.15F
ESCANABA       CLOUDY    64  57  78 S9        30.13S
MENOMINEE      CLOUDY    62  56  80 S10       30.12F
SAWYER-GWINN   MOCLDY    52  50  93 S8        30.12S
$$
MIZ001>003-009>011-084-251100-
WESTERN UPPER MICHIGAN

CITY           SKY/WX    TMP DP  RH WIND       PRES   REMARKS
IRON MOUNTAIN  CLOUDY    56  51  84 SE5       30.10F
HOUGHTON       CLOUDY    57  50  77 SE8       30.06S
COPPER HARBOR    N/A     60  54  80 VRB6      30.06S
IRONWOOD       CLOUDY    61  57  87 SE7       30.00F
$$

ABBREVIATIONS USED IN REMARKS
   TC - TEMPERATURE IN CELSIUS
  WCI - WIND CHILL INDEX
   HX - HEAT INDEX
  VSB - VISIBILITY





USA.gov is the U.S. government's official web portal to all federal, state and local government web resources and services.